{"data":{"norad_id":68011,"intl_designator":"2026-039AB","name":"STARLINK-36991","alt_names":[],"object_type":"PAYLOAD","status":"ACTIVE","operator":null,"country":"US","launch_date":"2026-02-27","launch_site_code":"AFETR","launch_vehicle":null,"mission":null,"orbit_class":"UNKNOWN","rcs_meters":null,"size_class":null,"mass_kg":null,"dimensions":null,"purposes":["comms"],"wikipedia_slug":null,"has_3d_model":false,"image_url":null,"decayed_at":null,"tle_current":{"epoch":"2026-09-19T16:12:47.341152Z","epoch_age_seconds":130929,"freshness":"FRESH","line1":"1 68011U 26039AB  26262.67554793  .00014600  00000+0  53878-3 0  9994","line2":"2 68011  43.0005  33.1854 0000744 278.0473  82.0295 15.27595236 31375","mean_motion":15.27595236,"eccentricity":7.44e-5,"inclination_deg":43.0005,"raan_deg":33.1854,"arg_perigee_deg":278.0473,"mean_anomaly_deg":82.0295,"bstar":0.00053878,"rev_number":3137,"period_min":94.265808511594,"perigee_km":482.49300550243,"apogee_km":483.51394320501,"semimajor_km":6861.1404743537,"source":"CELESTRAK","updated_at":"2026-09-20T09:00:43.740192Z"}}}